SCP
0 0 0 0 0 0 0 0 0 0 0 0 0 0 0 0 0 0 0 0 0 0 0 0 0 0 0 0 0 0 0 0 0 0 0 0 0 0 0 0 0 0 0
0 0 0 0 0 0 0 0 0 0 0 0 0 0 0 0 0 0 0 0 0 0 0 0 0 0 0 0 0 0 0 0 0 0 0 0 0 0 0 -0 0 0 0
0 0 0 0 0 0 0 0 0 0 0 0 0 0 0 0 0 0 0 0 0 0 0 0 0 0 0 0 0 0 0 0 0 0 0 0 0 0 0 0 0 0 0
0 0 0 0 0 0 0 0 0 0 0 0 0 0 0 0 0 0 0 0 0 0 0 0 0 0 0 0 0 0 0 0 0 0 0 0 0 0 0 0 0 0 0
0 0 0 0 0 0 0 0 0 0 0 0 0 0 0 0 0 0 0 0 0 0 0 0 0 0 0 0 0 0 0 0 0 0 0 0 0 0 0 0 0 0 0
0 0 0 0 0 0 0 0 0 0 0 0 0 0 0 0 0 0 0 0 0 0 0 0 0 0 0 0 0 0 0 0 0 0 0 0 0 0 0 0 0 0 0
0 0 0 0 0 0 0 0 0 0 0 0 0 0 0 0 0 0 0 0 0 0 0 0 0 0 0 0 0 0 0 0 0 0 0 0 0 0 0 0 0 0 0
0 0 0 0 0 0 0 0 0 0 0 0 0 0 0 0 0 0 0 0 0 0 0 0 0 0 0 0 0 0 0 0 0 0 0 0 0 0 0 0 0 0 0
0 0 0 0 0 0 0 0 0 0 0 0 0 0 0 0 0 0 0 0 0 0 0 0 0 0 0 0 0 0 0 0 0 0 0 0 0 0 0 0 0 0 0
0 0 0 0 0 0 0 0 0 0 0 0 0 0 0 0 0 0 0 0 0 0 0 0 0 0 0 0 0 0 0 0 0 0 0 0 0 0 0 0 0 0 0
0 0 0 0 0 0 0 0 0 0 0 0 0 0 0 0 0 -0 -0 0 0 0 0 0 0 0 -0 -0 0 0 0 0 0 0 0 0 0 0 0 0 0 0 0
0 0 0 0 0 0 0 0 0 0 0 0 0 0 0 0 0 0 0 0 0 0 0 0 0 0 0 0 0 0 0 0 0 0 0 0 0 0 0 0 0 0 0
0 0 0 0 0 0 0 0 0 0 0 0 0 0 0 0 0 0 0 0 0 0 0 0 0 0 0 0 0 0 0 0 0 0 0 0 0 0 0 0 0 0 0
0 0 0 0 0 0 0 0 0 0 0 0 0 0 0 0 0 0 0 0 0 0 0 0 0 0 0 0 0 0 0 0 0 0 0 0 0 0 0 0 0 0 0
0 0 0 0 0 0 0 0 0 0 0 0 0 0 0 0 0 0 0 0 0 0 0 0 0 0 0 0 0 0 0 0 0 0 0 0 0 0 0 0 0 0 -0
0 0 0 0 0 0 0 0 0 0 -0 -0 -0 -0 0 -0 -0 -0 -0 -0 0 0 0 0 0 0 0 0 0 0 0 0 0 0 0 0 0 0 0 0 0 0 -0
0 0 0 0 0 0 0 0 -0 0 0 0 0 0 -0 -0 0 0 0 0 0 0 0 0 0 0 0 0 0 0 0 0 0 0 0 0 0 0 0 0 0 0 0
0 0 0 0 0 0 0 0 0 -0 0 0 0 -0 0 0 0 0 0 0 0 0 0 0 0 0 0 0 0 0 0 0 0 0 0 0 0 0 0 0 0 0 0
0 0 0 0 0 0 0 0 0 0 0 0 0 0 0 0 0 0 0 0 0 0 0 0 0 0 0 0 0 0 0 0 0 0 0 0 0 0 0 0 0 0 0
0 0 0 0 0 0 0 0 0 0 0 0 0 0 0 0 0 0 0 0 0 0 0 0 0 0 0 0 0 0 0 0 0 0 0 -0 -0 -0 0 0 0 0 0
0 0 0 0 0 0 0 0 0 0 0 0 0 0 -0 0 0 0 0 0 0 0 0 0 0 0 0 0 0 0 0 0 0 0 0 0 0 0 0 0 0 0 0
0 0 0 0 0 0 0 0 0 0 0 0 0 0 0 0 0 0 0 0 0 0 0 0 0 0 0 0 0 0 0 0 0 0 0 0 0 0 0 0 0 0 0
0 0 0 0 0 0 0 0 0 0 0 0 0 0 0 0 0 0 0 0 0 0 0 0 0 0 0 0 0 0 0 0 0 -0 0 0 0 0 0 0 0 0 0
0 0 0 0 0 0 0 0 0 0 0 0 0 0 0 0 0 0 0 0 0 0 0 0 0 0 0 0 0 0 0 0 0 -0 0 0 0 0 0 0 0 0 0
0 0 0 0 0 0 0 0 0 0 0 0 0 0 0 0 0 0 0 0 0 0 0 0 0 0 0 0 0 0 0 0 0 0 0 0 -0 -0 -0 -0 -0 0 0
0 0 0 0 0 0 0 0 0 0 0 0 0 0 0 0 0 0 0 0 0 0 0 0 0 0 0 0 0 0 -0 -0 -0 0 -0 -0 -0 -0 -0 -0 -0 -0 -0
Wind_Speed_500mb
17 24 29 34 39 43 47 51 54 57 61 65 68 69 70 71 71 74 75 78 82 87 89 92 92 87 85 81 78 79 80 79 91 98 91 91 92 92 87 78 76 77 80
24 30 35 39 44 48 53 56 59 64 68 73 77 80 82 84 87 90 94 95 97 97 95 97 101 104 106 103 97 92 89 87 91 107 98 93 94 91 93 90 84 82 79
31 34 36 38 42 47 55 58 63 71 77 82 87 91 95 98 101 102 104 107 108 109 110 110 110 105 109 110 110 109 104 98 95 102 112 98 97 92 95 94 92 88 86
34 34 39 44 49 56 63 67 72 77 82 87 92 97 101 105 106 107 107 107 107 110 113 114 113 113 111 107 106 108 107 108 109 106 113 104 97 97 94 97 99 94 91
35 39 46 50 56 67 70 72 75 81 85 90 96 100 102 105 105 102 98 100 105 108 111 108 97 92 93 90 86 94 92 89 83 82 91 86 82 73 85 93 96 96 95
41 46 50 58 68 68 70 75 80 86 91 95 97 101 105 106 104 101 95 97 101 99 102 99 94 93 93 83 80 85 87 90 96 89 87 81 85 72 68 69 82 86 96
44 51 58 60 62 67 73 81 87 91 94 98 103 106 109 107 100 91 70 72 82 88 90 91 94 93 89 89 88 79 80 86 89 94 98 98 90 82 71 70 75 79 92
49 51 54 58 65 71 79 84 87 91 97 103 107 104 100 94 81 75 65 67 71 74 75 77 79 81 76 71 75 84 93 100 93 91 102 111 113 117 101 95 91 86 90
49 51 55 62 69 76 80 83 87 93 98 101 98 93 88 86 74 69 62 63 66 68 68 63 65 70 66 62 68 79 86 90 87 91 95 90 89 91 91 92 97 84 94
46 50 57 64 71 76 78 81 86 90 93 91 89 84 81 79 68 61 56 60 68 73 72 71 70 66 62 61 67 77 88 89 83 84 88 92 98 107 105 106 109 100 99
48 55 61 67 70 71 75 77 81 82 82 81 82 83 77 69 67 62 54 58 65 72 77 79 77 67 64 64 65 75 85 87 89 91 99 105 105 94 84 92 93 99 107
52 59 65 65 65 67 71 73 75 76 79 80 82 81 72 71 69 71 57 56 59 69 78 84 87 76 71 74 80 88 86 88 91 80 73 74 75 80 85 103 78 93 92
55 63 64 64 63 65 68 70 74 73 75 78 78 79 82 80 83 78 64 60 64 72 82 84 83 83 83 87 90 85 82 88 93 95 100 104 96 92 91 89 101 96 88
57 60 59 62 64 62 60 63 70 71 72 72 77 83 81 79 75 77 78 83 79 78 81 82 87 83 85 88 94 93 93 95 93 94 94 93 90 88 86 83 89 107 99
55 53 55 58 61 61 58 57 67 62 57 60 65 66 72 76 75 69 70 72 72 74 77 81 83 82 84 83 81 81 86 93 95 94 89 88 91 83 81 75 82 86 93
50 48 50 54 56 56 59 55 46 57 53 45 42 44 56 56 61 64 65 66 66 62 64 66 67 65 68 71 75 77 77 78 81 84 83 80 74 77 79 79 81 81 91
47 45 47 49 50 52 52 54 60 43 48 49 50 50 47 51 58 62 59 57 59 54 51 55 60 63 67 70 74 77 85 85 76 74 67 66 67 70 71 74 86 54 71
44 45 46 46 47 46 46 46 49 52 53 52 51 57 53 55 57 57 53 56 53 51 56 61 63 65 66 70 71 73 75 71 60 57 50 48 53 58 65 66 55 65 64
43 43 44 43 43 42 41 42 44 45 47 50 51 47 52 53 59 55 57 63 66 66 64 64 64 65 66 68 68 68 66 65 57 44 38 44 48 53 59 59 57 45 45
41 41 40 40 40 38 38 39 41 41 43 46 47 51 53 63 60 60 60 61 63 64 65 66 66 66 67 68 67 64 62 58 55 49 42 41 43 45 49 48 48 48 49
38 37 37 37 37 36 36 37 38 38 40 41 42 44 44 47 53 55 57 57 58 60 63 64 65 67 71 69 67 63 58 54 49 44 41 39 38 40 39 39 40 48 49
39 37 36 36 33 33 33 36 36 36 36 39 39 39 41 43 48 51 51 52 52 54 56 60 62 65 67 70 69 64 59 55 51 46 42 38 32 27 24 24 25 28 33
40 38 37 35 34 33 33 33 34 35 36 37 39 41 42 44 45 47 49 49 50 51 52 55 59 63 62 64 68 67 60 55 49 43 39 34 27 21 15 8 6 10 15
42 41 39 38 37 35 36 35 35 37 38 39 39 40 41 43 44 44 45 47 48 48 49 50 55 60 60 62 63 67 62 52 46 40 34 28 23 17 12 8 9 11 15
44 42 41 41 41 40 40 39 39 40 40 42 41 41 41 41 43 42 43 43 45 47 48 48 49 54 58 56 59 59 62 57 49 41 34 28 23 21 19 19 19 20 21
41 40 40 40 40 40 41 41 40 40 40 41 41 40 40 40 40 39 40 40 42 44 45 46 45 45 52 54 55 52 53 55 52 47 42 37 34 31 28 27 26 27 25
Wind_Direction_500mb
341 346 345 339 335 334 331 327 325 323 321 320 319 317 314 312 309 307 305 303 302 302 302 301 299 298 295 293 291 288 285 285 285 289 289 289 289 291 291 289 287 282 277
332 332 326 323 321 320 320 318 316 316 316 315 314 312 311 309 308 306 305 304 302 298 295 293 292 294 294 292 290 287 285 283 282 285 287 286 284 286 287 289 287 284 281
319 311 306 304 308 312 315 314 312 311 310 310 310 310 309 307 306 304 302 301 299 297 296 294 291 288 286 287 289 289 286 283 280 280 283 284 283 281 283 283 283 282 282
301 300 305 307 308 312 313 311 310 309 308 307 307 306 305 304 303 303 303 301 298 296 294 293 291 291 289 287 285 285 287 286 284 282 281 282 281 280 276 278 281 283 283
288 293 296 297 303 309 310 309 308 307 307 306 305 305 304 303 302 302 298 294 291 290 287 284 283 285 285 284 283 283 284 283 282 281 281 282 279 274 272 276 275 279 280
288 292 296 298 304 307 308 309 309 309 310 310 310 308 307 305 304 303 301 298 295 291 289 286 282 278 278 279 278 275 273 273 276 277 275 273 274 273 271 267 270 272 276
289 294 298 302 305 309 312 314 314 314 314 314 313 312 310 309 310 309 304 294 290 289 289 289 288 285 280 276 273 274 269 269 266 268 270 269 272 270 269 271 265 262 264
294 297 301 306 310 314 316 316 317 317 317 317 315 315 316 316 317 312 306 298 292 291 292 294 294 294 293 291 289 284 278 270 267 272 265 266 265 267 267 264 264 267 266
297 303 309 312 314 317 318 319 320 319 318 317 319 319 320 318 318 314 307 303 299 299 302 301 298 299 297 293 290 288 288 285 281 269 267 269 267 268 267 269 265 263 258
302 308 313 316 317 319 320 321 320 320 319 319 320 321 320 319 321 319 310 307 305 306 306 310 308 298 298 294 289 287 286 286 290 286 283 278 273 270 266 260 260 259 257
305 313 317 318 319 320 320 322 320 321 319 321 323 321 322 324 325 326 311 306 303 306 307 303 304 300 296 293 289 285 283 288 286 281 278 275 272 271 275 273 265 252 249
309 316 318 317 319 321 321 323 323 326 326 326 324 322 326 329 332 334 315 307 304 300 297 301 306 299 296 293 290 286 283 283 282 279 275 276 274 271 269 265 267 258 257
310 313 314 317 320 322 325 326 326 329 329 327 324 326 331 332 331 328 317 311 307 303 302 303 302 300 296 292 289 289 285 280 278 277 275 276 274 273 274 272 268 272 267
309 311 315 319 321 324 326 330 327 333 331 330 330 327 321 318 317 324 327 323 320 314 312 309 308 303 298 295 294 294 290 283 274 271 270 271 272 272 272 270 269 263 265
306 311 317 319 320 322 327 334 330 338 332 322 314 316 317 318 322 321 318 316 316 315 311 301 300 302 303 304 302 295 291 289 283 277 270 268 273 271 271 271 266 268 259
306 312 315 316 319 323 326 330 337 337 346 341 330 320 318 319 322 321 321 319 317 316 310 310 314 319 321 322 320 317 309 291 282 281 276 271 264 268 273 274 271 261 262
308 311 312 315 318 323 326 330 335 344 350 350 355 346 334 331 332 333 329 329 322 327 330 333 335 336 334 334 330 327 320 313 299 282 274 268 269 274 272 282 289 255 254
308 309 311 314 318 321 325 331 333 340 348 344 349 356 351 350 346 344 345 342 343 349 349 347 344 342 341 339 338 336 333 325 311 297 281 273 271 272 281 287 303 252 252
302 303 305 312 315 320 323 326 329 336 343 342 346 349 347 358 357 355 3 5 1 358 355 353 351 347 346 345 342 341 341 341 332 314 287 271 271 276 281 287 288 286 274
295 298 303 309 313 317 319 322 326 333 341 343 351 349 352 354 353 360 7 7 6 3 1 359 358 356 354 351 346 346 346 349 346 339 325 309 300 292 287 287 281 283 283
290 292 298 303 309 313 316 321 326 332 338 342 348 349 352 347 353 359 3 6 5 3 2 3 4 4 3 357 353 350 350 351 351 349 340 328 320 310 306 297 290 283 271
287 290 293 296 301 306 312 316 321 326 331 334 342 348 351 351 355 356 358 1 2 4 4 3 4 7 8 6 3 355 353 354 354 353 352 348 341 333 323 306 287 264 247
282 283 286 290 294 299 303 308 312 316 322 328 334 338 344 348 351 353 354 356 359 1 3 6 6 7 9 10 11 7 360 358 355 353 354 354 353 352 346 324 265 217 200
279 279 280 283 286 290 294 299 303 308 314 319 324 329 334 338 342 344 348 351 355 360 2 4 6 8 8 13 11 13 9 7 7 7 6 6 10 19 31 62 98 127 146
274 275 277 280 282 285 288 292 298 302 308 312 317 321 326 331 334 339 344 347 351 354 359 3 6 7 8 14 15 15 15 17 19 20 21 26 37 49 65 81 95 107 117
272 274 277 279 281 284 288 292 297 300 307 309 313 318 322 328 331 335 340 346 351 354 356 0 1 4 8 10 18 17 23 21 26 33 40 45 52 60 68 77 85 93 100
Wind_Speed_850mb
17 24 29 34 39 43 47 51 54 57 61 65 68 69 70 71 71 74 75 78 82 87 89 92 92 87 85 81 78 79 80 79 91 98 91 91 92 92 87 78 76 77 80
24 30 35 39 44 48 53 56 59 64 68 73 77 80 82 84 87 90 94 95 97 97 95 97 101 104 106 103 97 92 89 87 91 107 98 93 94 91 93 90 84 82 79
31 34 36 38 42 47 55 58 63 71 77 82 87 91 95 98 101 102 104 107 108 109 110 110 110 105 109 110 110 109 104 98 95 102 112 98 97 92 95 94 92 88 86
34 34 39 44 49 56 63 67 72 77 82 87 92 97 101 105 106 107 107 107 107 110 113 114 113 113 111 107 106 108 107 108 109 106 113 104 97 97 94 97 99 94 91
35 39 46 50 56 67 70 72 75 81 85 90 96 100 102 105 105 102 98 100 105 108 111 108 97 92 93 90 86 94 92 89 83 82 91 86 82 73 85 93 96 96 95
41 46 50 58 68 68 70 75 80 86 91 95 97 101 105 106 104 101 95 97 101 99 102 99 94 93 93 83 80 85 87 90 96 89 87 81 85 72 68 69 82 86 96
44 51 58 60 62 67 73 81 87 91 94 98 103 106 109 107 100 91 70 72 82 88 90 91 94 93 89 89 88 79 80 86 89 94 98 98 90 82 71 70 75 79 92
49 51 54 58 65 71 79 84 87 91 97 103 107 104 100 94 81 75 65 67 71 74 75 77 79 81 76 71 75 84 93 100 93 91 102 111 113 117 101 95 91 86 90
49 51 55 62 69 76 80 83 87 93 98 101 98 93 88 86 74 69 62 63 66 68 68 63 65 70 66 62 68 79 86 90 87 91 95 90 89 91 91 92 97 84 94
46 50 57 64 71 76 78 81 86 90 93 91 89 84 81 79 68 61 56 60 68 73 72 71 70 66 62 61 67 77 88 89 83 84 88 92 98 107 105 106 109 100 99
48 55 61 67 70 71 75 77 81 82 82 81 82 83 77 69 67 62 54 58 65 72 77 79 77 67 64 64 65 75 85 87 89 91 99 105 105 94 84 92 93 99 107
52 59 65 65 65 67 71 73 75 76 79 80 82 81 72 71 69 71 57 56 59 69 78 84 87 76 71 74 80 88 86 88 91 80 73 74 75 80 85 103 78 93 92
55 63 64 64 63 65 68 70 74 73 75 78 78 79 82 80 83 78 64 60 64 72 82 84 83 83 83 87 90 85 82 88 93 95 100 104 96 92 91 89 101 96 88
57 60 59 62 64 62 60 63 70 71 72 72 77 83 81 79 75 77 78 83 79 78 81 82 87 83 85 88 94 93 93 95 93 94 94 93 90 88 86 83 89 107 99
55 53 55 58 61 61 58 57 67 62 57 60 65 66 72 76 75 69 70 72 72 74 77 81 83 82 84 83 81 81 86 93 95 94 89 88 91 83 81 75 82 86 93
50 48 50 54 56 56 59 55 46 57 53 45 42 44 56 56 61 64 65 66 66 62 64 66 67 65 68 71 75 77 77 78 81 84 83 80 74 77 79 79 81 81 91
47 45 47 49 50 52 52 54 60 43 48 49 50 50 47 51 58 62 59 57 59 54 51 55 60 63 67 70 74 77 85 85 76 74 67 66 67 70 71 74 86 54 71
44 45 46 46 47 46 46 46 49 52 53 52 51 57 53 55 57 57 53 56 53 51 56 61 63 65 66 70 71 73 75 71 60 57 50 48 53 58 65 66 55 65 64
43 43 44 43 43 42 41 42 44 45 47 50 51 47 52 53 59 55 57 63 66 66 64 64 64 65 66 68 68 68 66 65 57 44 38 44 48 53 59 59 57 45 45
41 41 40 40 40 38 38 39 41 41 43 46 47 51 53 63 60 60 60 61 63 64 65 66 66 66 67 68 67 64 62 58 55 49 42 41 43 45 49 48 48 48 49
38 37 37 37 37 36 36 37 38 38 40 41 42 44 44 47 53 55 57 57 58 60 63 64 65 67 71 69 67 63 58 54 49 44 41 39 38 40 39 39 40 48 49
39 37 36 36 33 33 33 36 36 36 36 39 39 39 41 43 48 51 51 52 52 54 56 60 62 65 67 70 69 64 59 55 51 46 42 38 32 27 24 24 25 28 33
40 38 37 35 34 33 33 33 34 35 36 37 39 41 42 44 45 47 49 49 50 51 52 55 59 63 62 64 68 67 60 55 49 43 39 34 27 21 15 8 6 10 15
42 41 39 38 37 35 36 35 35 37 38 39 39 40 41 43 44 44 45 47 48 48 49 50 55 60 60 62 63 67 62 52 46 40 34 28 23 17 12 8 9 11 15
44 42 41 41 41 40 40 39 39 40 40 42 41 41 41 41 43 42 43 43 45 47 48 48 49 54 58 56 59 59 62 57 49 41 34 28 23 21 19 19 19 20 21
41 40 40 40 40 40 41 41 40 40 40 41 41 40 40 40 40 39 40 40 42 44 45 46 45 45 52 54 55 52 53 55 52 47 42 37 34 31 28 27 26 27 25
Wind_Direction_850mb
341 346 345 339 335 334 331 327 325 323 321 320 319 317 314 312 309 307 305 303 302 302 302 301 299 298 295 293 291 288 285 285 285 289 289 289 289 291 291 289 287 282 277
332 332 326 323 321 320 320 318 316 316 316 315 314 312 311 309 308 306 305 304 302 298 295 293 292 294 294 292 290 287 285 283 282 285 287 286 284 286 287 289 287 284 281
319 311 306 304 308 312 315 314 312 311 310 310 310 310 309 307 306 304 302 301 299 297 296 294 291 288 286 287 289 289 286 283 280 280 283 284 283 281 283 283 283 282 282
301 300 305 307 308 312 313 311 310 309 308 307 307 306 305 304 303 303 303 301 298 296 294 293 291 291 289 287 285 285 287 286 284 282 281 282 281 280 276 278 281 283 283
288 293 296 297 303 309 310 309 308 307 307 306 305 305 304 303 302 302 298 294 291 290 287 284 283 285 285 284 283 283 284 283 282 281 281 282 279 274 272 276 275 279 280
288 292 296 298 304 307 308 309 309 309 310 310 310 308 307 305 304 303 301 298 295 291 289 286 282 278 278 279 278 275 273 273 276 277 275 273 274 273 271 267 270 272 276
289 294 298 302 305 309 312 314 314 314 314 314 313 312 310 309 310 309 304 294 290 289 289 289 288 285 280 276 273 274 269 269 266 268 270 269 272 270 269 271 265 262 264
294 297 301 306 310 314 316 316 317 317 317 317 315 315 316 316 317 312 306 298 292 291 292 294 294 294 293 291 289 284 278 270 267 272 265 266 265 267 267 264 264 267 266
297 303 309 312 314 317 318 319 320 319 318 317 319 319 320 318 318 314 307 303 299 299 302 301 298 299 297 293 290 288 288 285 281 269 267 269 267 268 267 269 265 263 258
302 308 313 316 317 319 320 321 320 320 319 319 320 321 320 319 321 319 310 307 305 306 306 310 308 298 298 294 289 287 286 286 290 286 283 278 273 270 266 260 260 259 257
305 313 317 318 319 320 320 322 320 321 319 321 323 321 322 324 325 326 311 306 303 306 307 303 304 300 296 293 289 285 283 288 286 281 278 275 272 271 275 273 265 252 249
309 316 318 317 319 321 321 323 323 326 326 326 324 322 326 329 332 334 315 307 304 300 297 301 306 299 296 293 290 286 283 283 282 279 275 276 274 271 269 265 267 258 257
310 313 314 317 320 322 325 326 326 329 329 327 324 326 331 332 331 328 317 311 307 303 302 303 302 300 296 292 289 289 285 280 278 277 275 276 274 273 274 272 268 272 267
309 311 315 319 321 324 326 330 327 333 331 330 330 327 321 318 317 324 327 323 320 314 312 309 308 303 298 295 294 294 290 283 274 271 270 271 272 272 272 270 269 263 265
306 311 317 319 320 322 327 334 330 338 332 322 314 316 317 318 322 321 318 316 316 315 311 301 300 302 303 304 302 295 291 289 283 277 270 268 273 271 271 271 266 268 259
306 312 315 316 319 323 326 330 337 337 346 341 330 320 318 319 322 321 321 319 317 316 310 310 314 319 321 322 320 317 309 291 282 281 276 271 264 268 273 274 271 261 262
308 311 312 315 318 323 326 330 335 344 350 350 355 346 334 331 332 333 329 329 322 327 330 333 335 336 334 334 330 327 320 313 299 282 274 268 269 274 272 282 289 255 254
308 309 311 314 318 321 325 331 333 340 348 344 349 356 351 350 346 344 345 342 343 349 349 347 344 342 341 339 338 336 333 325 311 297 281 273 271 272 281 287 303 252 252
302 303 305 312 315 320 323 326 329 336 343 342 346 349 347 358 357 355 3 5 1 358 355 353 351 347 346 345 342 341 341 341 332 314 287 271 271 276 281 287 288 286 274
295 298 303 309 313 317 319 322 326 333 341 343 351 349 352 354 353 360 7 7 6 3 1 359 358 356 354 351 346 346 346 349 346 339 325 309 300 292 287 287 281 283 283
290 292 298 303 309 313 316 321 326 332 338 342 348 349 352 347 353 359 3 6 5 3 2 3 4 4 3 357 353 350 350 351 351 349 340 328 320 310 306 297 290 283 271
287 290 293 296 301 306 312 316 321 326 331 334 342 348 351 351 355 356 358 1 2 4 4 3 4 7 8 6 3 355 353 354 354 353 352 348 341 333 323 306 287 264 247
282 283 286 290 294 299 303 308 312 316 322 328 334 338 344 348 351 353 354 356 359 1 3 6 6 7 9 10 11 7 360 358 355 353 354 354 353 352 346 324 265 217 200
279 279 280 283 286 290 294 299 303 308 314 319 324 329 334 338 342 344 348 351 355 360 2 4 6 8 8 13 11 13 9 7 7 7 6 6 10 19 31 62 98 127 146
274 275 277 280 282 285 288 292 298 302 308 312 317 321 326 331 334 339 344 347 351 354 359 3 6 7 8 14 15 15 15 17 19 20 21 26 37 49 65 81 95 107 117
272 274 277 279 281 284 288 292 297 300 307 309 313 318 322 328 331 335 340 346 351 354 356 0 1 4 8 10 18 17 23 21 26 33 40 45 52 60 68 77 85 93 100